[[{"header":{"parameterUnit":"m.s-1","parameterCategory":1,"la1":30.2992,"la2":30.254,"lo1":-89.0895,"lo2":-89.0443,"dy":0.0025,"dx":0.0025,"nx":19,"ny":19,"refTime":"2026-04-07T21:00:00:Z","depth":0,"parameterNumber":2,"parameterNumberName":"U-component_of_WINDS"},"data":[0,0,0,-8.1682,-8.1685,-8.1819,-8.1819,-8.2043,-8.2045,0,0,0,0,0,0,0,0,0,0,0,-8.1676,-8.1678,-8.1681,-8.1686,-8.1819,-8.1819,-8.2042,-8.2045,0,0,0,0,0,0,0,0,0,0,0,-8.1674,-8.1678,-8.1681,-8.1686,-8.1819,-8.1819,-8.2042,-8.1922,0,0,0,0,0,0,0,0,0,0,-8.1783,-8.1811,-8.1677,-8.1681,-8.1687,-8.1819,-8.1819,-8.1915,-8.1929,-8.2005,0,-8.2084,0,-8.2068,-8.2064,-8.2065,0,0,0,-8.166,-8.18,-8.1805,-8.1682,-8.1689,-8.1819,-8.1751,-8.1922,-8.1938,-8.2024,-8.2086,-8.2093,-8.2072,-8.2065,-8.2067,-8.2594,-8.2597,0,0,-8.1652,-8.1718,-8.1794,-8.1817,-8.1802,-8.1747,-8.1756,-8.1931,-8.2002,-8.2087,-8.2097,-8.2076,-8.2067,-8.2069,-8.259,-8.2595,0,0,0,-8.1649,-8.1714,-8.1713,-8.181,-8.183,-8.1752,-8.1762,-8.1994,-8.1989,-8.2099,-8.2079,-8.2069,-8.2072,-8.2586,-8.2592,-8.2835,0,0,0,-8.1643,-8.1711,-8.1712,-8.1753,-8.1828,-8.1914,-8.1822,-8.1977,-8.1994,-8.2077,-8.2069,-8.2075,-8.2582,-8.2589,-8.2819,-8.2939,0,0,0,-8.1655,-8.1712,-8.1743,-8.1756,-8.1816,-8.191,-8.1914,-8.1979,-8.1984,-8.2065,-8.2076,-8.2579,-8.2588,-8.2806,-8.2916,-8.3094,0,0,0,-8.1687,-8.1959,-8.1749,-8.2043,-8.1816,-8.2061,-8.1912,-8.2091,-8.219,-8.207,-8.2583,-8.2591,-8.2801,-8.2902,-8.308,-8.3255,-8.3335,0,0,-8.2066,-8.2007,-8.2175,-8.199,-8.229,-8.2035,-8.2369,-8.2397,-8.2345,-8.2513,-8.2525,-8.2825,-8.2914,-8.3091,-8.3763,-8.3827,0,0,0,-8.2317,-8.2438,-8.2503,-8.2601,-8.263,-8.2664,-8.2634,-8.2644,-8.2784,-8.2446,-8.2936,-8.2988,-8.3089,-8.3169,-8.3224,-8.3305,-8.2632,-8.2631,-8.263,-8.2946,-8.2864,-8.3136,-8.3071,-8.3168,-8.3134,-8.3204,-8.3211,-8.3102,-8.3219,-8.3268,-8.3685,-8.3782,-8.3822,-8.3908,-8.3355,-8.3357,-8.3357,-8.3358,-8.3491,-8.3648,-8.3496,-8.3704,-8.3616,-8.3789,-8.3768,-8.3684,-8.3831,-8.3642,-8.3727,-8.3526,-8.3895,-8.3965,-8.3375,-8.3372,-8.337,-8.3369,-8.3367,-8.3891,-8.3952,-8.3961,-8.4092,-8.4202,-8.4126,-8.4274,-8.4189,-8.411,-8.4194,-8.4234,-8.423,-8.4213,-8.422,-8.4222,-8.4223,-8.4224,-8.4225,-8.4226,-8.4302,-8.4304,-8.444,-8.4493,-8.4543,-8.4598,-8.4567,-8.4613,-8.4643,-8.4569,-8.4568,-8.4445,-8.3948,-8.3823,-8.4248,-8.4244,-8.4241,-8.4239,-8.4238,-8.4881,-8.4736,-8.4947,-8.4997,-8.505,-8.5164,-8.5054,-8.5156,-8.5182,-8.5257,-8.5116,-8.4763,-8.4695,-8.4652,-8.4547,-8.5135,-8.5135,-8.5135,-8.5135,-8.5217,-8.5175,-8.5369,-8.5455,-8.5529,-8.545,-8.5688,-8.5666,-8.562,-8.563,-8.5534,-8.5389,-8.5348,-8.5305,-8.5247,-8.5148,-8.5875,-8.5875,-8.5876,-8.5566,-8.5527,-8.5746,-8.57,-8.5735,-8.5767,-8.5987,-8.609,-8.6008,-8.5904,-8.5636,-8.5605,-8.537,-8.5299,-8.5187,-8.5099,-8.4916,0,0]},{"header":{"parameterUnit":"m.s-1","parameterCategory":1,"la1":30.2992,"la2":30.254,"lo1":-89.0895,"lo2":-89.0443,"dy":0.0025,"dx":0.0025,"nx":19,"ny":19,"refTime":"2026-04-07T21:00:00:Z","depth":0,"parameterNumber":3,"parameterNumberName":"V-component_of_WINDS"},"data":[0,0,0,-0.127,-0.1271,-0.132,-0.132,-0.1369,-0.137,0,0,0,0,0,0,0,0,0,0,0,-0.1249,-0.1249,-0.127,-0.1271,-0.132,-0.132,-0.1369,-0.137,0,0,0,0,0,0,0,0,0,0,0,-0.1249,-0.1249,-0.1249,-0.1271,-0.132,-0.132,-0.1369,-0.1337,0,0,0,0,0,0,0,0,0,0,-0.1292,-0.1265,-0.1249,-0.1249,-0.1272,-0.132,-0.132,-0.1336,-0.1339,-0.1342,0,-0.1343,0,-0.1357,-0.1372,-0.1372,0,0,0,-0.1277,-0.1262,-0.1282,-0.1249,-0.1272,-0.132,-0.13,-0.1338,-0.1342,-0.1346,-0.1344,-0.1346,-0.1358,-0.1372,-0.1373,-0.1368,-0.1367,0,0,-0.1274,-0.1254,-0.1279,-0.1284,-0.1276,-0.1298,-0.1301,-0.134,-0.1336,-0.1344,-0.1347,-0.1358,-0.1373,-0.1373,-0.1368,-0.1368,0,0,0,-0.1263,-0.1251,-0.127,-0.1281,-0.1291,-0.1299,-0.1303,-0.1334,-0.1342,-0.1348,-0.1359,-0.1373,-0.1373,-0.1368,-0.1368,-0.1332,0,0,0,-0.1261,-0.1245,-0.1269,-0.1257,-0.129,-0.1313,-0.1296,-0.1339,-0.1345,-0.1359,-0.1373,-0.1374,-0.1369,-0.1368,-0.1334,-0.1319,0,0,0,-0.1248,-0.1243,-0.1248,-0.1256,-0.1276,-0.1313,-0.1324,-0.1341,-0.1351,-0.1372,-0.1374,-0.1369,-0.1368,-0.1335,-0.1321,-0.131,0,0,0,-0.1228,-0.1217,-0.1247,-0.1239,-0.1275,-0.1291,-0.1324,-0.1337,-0.1351,-0.1373,-0.1369,-0.1368,-0.1336,-0.1323,-0.1311,-0.1296,-0.1287,0,0,-0.1203,-0.1213,-0.121,-0.1238,-0.1243,-0.1285,-0.1285,-0.1318,-0.134,-0.1357,-0.1357,-0.1333,-0.1322,-0.131,-0.125,-0.1243,0,0,0,-0.1195,-0.1192,-0.1198,-0.121,-0.1234,-0.1252,-0.1288,-0.1299,-0.1315,-0.1344,-0.1327,-0.1321,-0.1315,-0.1308,-0.1303,-0.1298,-0.1364,-0.1364,-0.1364,-0.1131,-0.1157,-0.1152,-0.1184,-0.1194,-0.1229,-0.1239,-0.1261,-0.1287,-0.1282,-0.1287,-0.1247,-0.1239,-0.1235,-0.1229,-0.1282,-0.1281,-0.1281,-0.1281,-0.1095,-0.1095,-0.1125,-0.1132,-0.1159,-0.1165,-0.1197,-0.1214,-0.1223,-0.1246,-0.1242,-0.1265,-0.1226,-0.1223,-0.1279,-0.1279,-0.128,-0.128,-0.128,-0.1055,-0.1059,-0.1072,-0.1089,-0.1099,-0.1131,-0.1137,-0.1163,-0.1187,-0.1183,-0.119,-0.119,-0.1193,-0.1184,-0.1184,-0.1184,-0.1184,-0.1184,-0.1184,-0.1008,-0.1024,-0.1026,-0.1047,-0.1056,-0.1071,-0.1103,-0.1113,-0.113,-0.1148,-0.1148,-0.1172,-0.1218,-0.1228,-0.1182,-0.1182,-0.1182,-0.1183,-0.1183,-0.0961,-0.0975,-0.0977,-0.0986,-0.1012,-0.1018,-0.105,-0.1066,-0.1078,-0.1079,-0.1104,-0.1134,-0.1147,-0.1152,-0.116,-0.1099,-0.1099,-0.1099,-0.1099,-0.0926,-0.0935,-0.0941,-0.0953,-0.0967,-0.0994,-0.0994,-0.1018,-0.1045,-0.1054,-0.1066,-0.108,-0.1084,-0.1095,-0.11,-0.1109,-0.1036,-0.1036,-0.1036,-0.0898,-0.0908,-0.0904,-0.0929,-0.095,-0.0968,-0.0968,-0.0979,-0.1013,-0.1034,-0.106,-0.1063,-0.1085,-0.1092,-0.1113,-0.1122,-0.1138,0,0]}]]